Total_Precipitation_Accumulation
0.16 0.17 0.18 0.19 0.13 0.08 0.08 0.10 0.05 0.02 0.06 0.06 0.04 0.01 0.01 0.00 0.00 0.00 0.00 0.00 0.00 0.00
0.29 0.33 0.29 0.24 0.19 0.16 0.10 0.08 0.13 0.17 0.09 0.01 0.01 0.01 0.01 0.02 0.02 0.01 0.00 0.00 0.00 0.00
0.20 0.25 0.25 0.25 0.23 0.18 0.14 0.11 0.11 0.12 0.09 0.04 0.03 0.05 0.05 0.03 0.01 0.01 0.02 0.00 0.00 0.00
0.18 0.22 0.24 0.25 0.20 0.15 0.09 0.06 0.05 0.04 0.04 0.06 0.08 0.09 0.05 0.02 0.02 0.02 0.00 0.00 0.00 0.00
0.27 0.27 0.22 0.17 0.13 0.08 0.05 0.03 0.03 0.05 0.03 0.03 0.03 0.03 0.04 0.05 0.02 0.00 0.00 0.00 0.00 0.00
0.19 0.18 0.15 0.11 0.06 0.02 0.00 0.00 0.00 0.01 0.02 0.04 0.05 0.09 0.08 0.03 0.01 0.00 0.00 0.00 0.00 0.00
0.15 0.12 0.07 0.04 0.01 0.01 0.01 0.01 0.01 0.02 0.02 0.04 0.06 0.05 0.03 0.01 0.00 0.00 0.00 0.00 0.00 0.00
0.05 0.02 0.01 0.00 0.00 0.01 0.01 0.01 0.00 0.02 0.07 0.06 0.03 0.02 0.00 0.00 0.00 0.00 0.00 0.00 0.00 0.00
0.01 0.00 0.00 0.00 0.00 0.00 0.00 0.02 0.07 0.10 0.07 0.06 0.03 0.02 0.00 0.00 0.00 0.00 0.00 0.00 0.00 0.00
0.00 0.00 0.00 0.00 0.00 0.03 0.11 0.16 0.15 0.14 0.10 0.04 0.01 0.00 0.00 0.00 0.00 0.00 0.00 0.00 0.00 0.00
0.00 0.00 0.00 0.03 0.11 0.19 0.19 0.17 0.11 0.03 0.00 0.00 0.00 0.00 0.00 0.00 0.00 0.00 0.00 0.00 0.00 0.00
0.00 0.01 0.07 0.16 0.19 0.15 0.07 0.01 0.00 0.00 0.00 0.00 0.00 0.00 0.00 0.00 0.00 0.00 0.00 0.00 0.00 0.00
0.08 0.18 0.18 0.10 0.02 0.00 0.00 0.00 0.00 0.00 0.00 0.00 0.00 0.00 0.00 0.00 0.00 0.00 0.00 0.00 0.00 0.00
0.10 0.02 0.00 0.00 0.00 0.00 0.00 0.00 0.00 0.00 0.00 0.00 0.00 0.00 0.00 0.00 0.00 0.00 0.00 0.00 0.00 0.00